• In Italy
  • List of Countries
  • For 7 days
  • Water Temperature
  • Satellite Maps
  • Weather Map
  • Weather Widgets
  • user-avatar
    Login

    Hourly Weather Vanadzor

    Today, 23 June, Saturday

    Time Temperature Precipitation Wind Pressure Humidity
    00:00 +14°C° 0.2 mm 2 mps 634 mmHg 88%
    01:00 +13°C° 0.1 mm 2 mps 634 mmHg 88%
    02:00 +13°C° 0.1 mm 2 mps 634 mmHg 88%
    03:00 +13°C° 0 mm 1 mps 633 mmHg 88%
    04:00 +13°C° 0.1 mm 1 mps 634 mmHg 87%
    05:00 +14°C° 0.1 mm 1 mps 634 mmHg 86%
    06:00 +15°C° 0.1 mm 1 mps 634 mmHg 85%
    07:00 +16°C° 0.2 mm 1 mps 634 mmHg 80%
    08:00 +19°C° 0.2 mm 1 mps 635 mmHg 75%
    09:00 +20°C° 0 mm 1 mps 635 mmHg 69%
    10:00 +20°C° 0.8 mm 2 mps 635 mmHg 66%
    11:00 +21°C° 0.8 mm 2 mps 635 mmHg 63%
    12:00 +23°C° 0.8 mm 2 mps 635 mmHg 60%
    13:00 +24°C° 0.9 mm 2 mps 635 mmHg 59%
    14:00 +24°C° 0.9 mm 2 mps 635 mmHg 58%
    15:00 +24°C° 0 mm 2 mps 635 mmHg 58%
    16:00 +23°C° 0.8 mm 2 mps 635 mmHg 62%
    17:00 +23°C° 0.8 mm 2 mps 635 mmHg 66%
    18:00 +22°C° 0.8 mm 1 mps 635 mmHg 71%
    19:00 +20°C° 0.4 mm 1 mps 635 mmHg 75%
    20:00 +18°C° 0.4 mm 1 mps 635 mmHg 79%
    21:00 +15°C° 0.4 mm 1 mps 635 mmHg 83%
    22:00 +15°C° 0.2 mm 2 mps 635 mmHg 84%
    23:00 +14°C° 0.2 mm 2 mps 635 mmHg 85%

    Tomorrow, 24 June, Sunday

    Time Temperature Precipitation Wind Pressure Humidity
    00:00 +14°C° 0.2 mm 2 mps 635 mmHg 86%
    01:00 +14°C° 0.1 mm 2 mps 635 mmHg 87%
    02:00 +13°C° 0.1 mm 2 mps 635 mmHg 87%
    03:00 +13°C° 0.1 mm 1 mps 635 mmHg 87%
    04:00 +14°C° 0 mm 1 mps 635 mmHg 86%
    05:00 +15°C° 0 mm 1 mps 635 mmHg 84%
    06:00 +15°C° 0 mm 1 mps 636 mmHg 83%
    07:00 +18°C° 0 mm 1 mps 636 mmHg 77%
    08:00 +20°C° 0 mm 1 mps 636 mmHg 71%
    09:00 +22°C° 0 mm 1 mps 637 mmHg 65%
    10:00 +23°C° 0.1 mm 1 mps 637 mmHg 63%
    11:00 +24°C° 0.1 mm 1 mps 637 mmHg 61%
    12:00 +25°C° 0.1 mm 2 mps 637 mmHg 58%
    13:00 +25°C° 0.6 mm 2 mps 637 mmHg 59%
    14:00 +25°C° 0.6 mm 2 mps 637 mmHg 59%
    15:00 +25°C° 0.6 mm 2 mps 637 mmHg 59%
    16:00 +25°C° 0.9 mm 2 mps 637 mmHg 63%
    17:00 +24°C° 0.9 mm 2 mps 637 mmHg 68%
    18:00 +23°C° 0.9 mm 2 mps 636 mmHg 73%
    19:00 +20°C° 0.4 mm 2 mps 636 mmHg 76%
    20:00 +18°C° 0.4 mm 2 mps 636 mmHg 80%
    21:00 +16°C° 0.4 mm 2 mps 636 mmHg 84%
    22:00 +16°C° 0.2 mm 2 mps 636 mmHg 85%
    23:00 +16°C° 0.2 mm 2 mps 636 mmHg 86%

    Day after tomorrow, 25 June, Monday

    Time Temperature Precipitation Wind Pressure Humidity
    00:00 +15°C° 0.2 mm 2 mps 636 mmHg 88%
    01:00 +15°C° 0.1 mm 2 mps 636 mmHg 89%
    02:00 +15°C° 0.1 mm 2 mps 636 mmHg 90%
    03:00 +15°C° 0.1 mm 2 mps 636 mmHg 91%
    04:00 +15°C° 0 mm 2 mps 636 mmHg 90%
    05:00 +15°C° 0 mm 2 mps 636 mmHg 89%
    06:00 +16°C° 0 mm 2 mps 637 mmHg 89%
    07:00 +18°C° 0 mm 2 mps 637 mmHg 82%
    08:00 +19°C° 0 mm 2 mps 637 mmHg 75%
    09:00 +21°C° 0 mm 2 mps 638 mmHg 68%
    10:00 +23°C° 0 mm 2 mps 638 mmHg 66%
    11:00 +24°C° 0 mm 2 mps 638 mmHg 63%
    12:00 +25°C° 0 mm 3 mps 638 mmHg 61%
    13:00 +25°C° 0.1 mm 3 mps 638 mmHg 60%
    14:00 +26°C° 0.1 mm 3 mps 637 mmHg 60%
    15:00 +26°C° 0.1 mm 3 mps 637 mmHg 59%
    16:00 +25°C° 0.4 mm 3 mps 637 mmHg 63%
    17:00 +24°C° 0.4 mm 3 mps 637 mmHg 67%
    18:00 +24°C° 0.4 mm 3 mps 637 mmHg 71%
    19:00 +21°C° 0.2 mm 2 mps 637 mmHg 72%
    20:00 +19°C° 0.2 mm 2 mps 637 mmHg 74%
    21:00 +17°C° 0.2 mm 2 mps 637 mmHg 75%
    22:00 +17°C° 0 mm 2 mps 637 mmHg 75%
    23:00 +16°C° 0 mm 2 mps 636 mmHg 74%

    26 June, Tuesday

    Time Temperature Precipitation Wind Pressure Humidity
    00:00 +16°C° 0 mm 2 mps 636 mmHg 74%
    01:00 +15°C° 0 mm 2 mps 636 mmHg 75%
    02:00 +15°C° 0 mm 2 mps 636 mmHg 76%
    03:00 +14°C° 0 mm 2 mps 636 mmHg 76%
    04:00 +15°C° 0 mm 2 mps 636 mmHg 77%
    05:00 +16°C° 0 mm 2 mps 636 mmHg 77%
    06:00 +17°C° 0 mm 2 mps 636 mmHg 77%
    07:00 +18°C° 0 mm 2 mps 637 mmHg 71%
    08:00 +20°C° 0 mm 2 mps 637 mmHg 64%
    09:00 +23°C° 0 mm 2 mps 637 mmHg 58%
    10:00 +24°C° 0 mm 2 mps 637 mmHg 56%
    11:00 +25°C° 0 mm 2 mps 637 mmHg 54%
    12:00 +27°C° 0 mm 2 mps 637 mmHg 52%
    13:00 +27°C° 0 mm 2 mps 637 mmHg 52%
    14:00 +27°C° 0 mm 2 mps 637 mmHg 52%
    15:00 +28°C° 0 mm 2 mps 637 mmHg 52%
    16:00 +27°C° 0 mm 2 mps 637 mmHg 57%
    17:00 +26°C° 0 mm 2 mps 636 mmHg 61%
    18:00 +25°C° 0 mm 2 mps 636 mmHg 66%
    19:00 +23°C° 0 mm 2 mps 636 mmHg 68%
    20:00 +20°C° 0 mm 2 mps 636 mmHg 70%
    21:00 +18°C° 0 mm 2 mps 636 mmHg 73%
    22:00 +17°C° 0 mm 2 mps 636 mmHg 71%
    23:00 +17°C° 0 mm 2 mps 636 mmHg 69%

    27 June, Wednesday

    Time Temperature Precipitation Wind Pressure Humidity
    00:00 +16°C° 0 mm 2 mps 636 mmHg 67%
    01:00 +16°C° 0 mm 2 mps 635 mmHg 68%
    02:00 +16°C° 0 mm 2 mps 635 mmHg 69%
    03:00 +16°C° 0 mm 2 mps 635 mmHg 70%
    04:00 +16°C° 0 mm 2 mps 636 mmHg 71%
    05:00 +18°C° 0 mm 1 mps 636 mmHg 72%
    06:00 +19°C° 0 mm 1 mps 636 mmHg 73%
    07:00 +21°C° 0 mm 1 mps 637 mmHg 67%
    08:00 +23°C° 0 mm 1 mps 637 mmHg 60%
    09:00 +25°C° 0 mm 1 mps 638 mmHg 53%
    10:00 +26°C° 0 mm 2 mps 638 mmHg 51%
    11:00 +27°C° 0 mm 2 mps 638 mmHg 50%
    12:00 +28°C° 0 mm 2 mps 638 mmHg 48%
    13:00 +29°C° 0 mm 2 mps 638 mmHg 48%
    14:00 +29°C° 0 mm 2 mps 637 mmHg 48%
    15:00 +29°C° 0 mm 2 mps 637 mmHg 49%
    16:00 +28°C° 0 mm 2 mps 637 mmHg 54%
    17:00 +28°C° 0 mm 2 mps 637 mmHg 59%
    18:00 +27°C° 0 mm 2 mps 637 mmHg 64%
    19:00 +25°C° 0 mm 2 mps 636 mmHg 67%
    20:00 +21°C° 0 mm 2 mps 636 mmHg 70%
    21:00 +19°C° 0 mm 2 mps 636 mmHg 73%
    22:00 +19°C° 0 mm 2 mps 636 mmHg 70%
    23:00 +18°C° 0 mm 2 mps 636 mmHg 68%

    28 June, Thursday

    Time Temperature Precipitation Wind Pressure Humidity
    00:00 +17°C° 0 mm 2 mps 636 mmHg 65%
    01:00 +17°C° 0 mm 2 mps 636 mmHg 66%
    02:00 +17°C° 0 mm 2 mps 636 mmHg 66%
    03:00 +16°C° 0 mm 2 mps 636 mmHg 67%
    04:00 +17°C° 0 mm 2 mps 636 mmHg 69%
    05:00 +17°C° 0 mm 2 mps 637 mmHg 70%
    06:00 +18°C° 0 mm 2 mps 637 mmHg 72%
    07:00 +20°C° 0 mm 2 mps 637 mmHg 66%
    08:00 +23°C° 0 mm 2 mps 638 mmHg 61%
    09:00 +25°C° 0 mm 2 mps 638 mmHg 55%
    10:00 +26°C° 0 mm 2 mps 638 mmHg 54%
    11:00 +27°C° 0 mm 2 mps 638 mmHg 53%
    12:00 +28°C° 0 mm 3 mps 638 mmHg 51%
    13:00 +28°C° 0 mm 3 mps 638 mmHg 51%
    14:00 +28°C° 0 mm 3 mps 638 mmHg 51%
    15:00 +28°C° 0 mm 3 mps 638 mmHg 51%
    16:00 +27°C° 0 mm 3 mps 638 mmHg 55%
    17:00 +27°C° 0 mm 3 mps 638 mmHg 58%
    18:00 +26°C° 0 mm 2 mps 637 mmHg 62%
    19:00 +24°C° 0 mm 2 mps 637 mmHg 63%
    20:00 +21°C° 0 mm 2 mps 637 mmHg 63%
    21:00 +19°C° 0 mm 2 mps 637 mmHg 64%
    22:00 +18°C° 0 mm 2 mps 637 mmHg 64%
    23:00 +18°C° 0 mm 2 mps 637 mmHg 65%
    Show more